Location: Clermont
(50.2608°N, 4.3172°E)
Time: 08:10:26
(UTC+00:00)

Cosmos 405 Rocket - Pass Details

Date: 13 August 2020
Orbit: 490 x 553 km, 81.3° (Epoch: 26 September)

Event Time Altitude Azimuth Distance (km) Brightness Sun altitude
Exits shadow 19:41:14 - 132° (SE) 1,913 4.9 -6.0°
Reaches altitude 10° 19:42:02 10° 123° (ESE) 1,695 4.6 -6.1°
Maximum altitude 19:44:14 15° 87° (E) 1,409 4.4 -6.4°
Drops below altitude 10° 19:46:27 10° 51° (NE) 1,719 5.2 -6.7°
Sets 19:49:17 0° 28° (NNE) 2,623 6.4 -7.1°
